Location: Newark
(42.7133°N, 87.7910°W)
Time: 23:07:54
(UTC+00:00)

Transit 4A - Pass Details

Date: 27 September 2019
Orbit: 866 x 978 km, 66.8° (Epoch: 16 October)

Event Time Altitude Azimuth Distance (km) Brightness Sun altitude
Rises 01:04:07 0° 327° (NNW) 3,582 11.7 -15.9°
Reaches altitude 10° 01:06:41 10° 325° (NW) 2,619 11.0 -16.3°
Maximum altitude 01:12:42 68° 244° (WSW) 967 8.1 -17.4°
Drops below altitude 10° 01:18:31 10° 162° (SSE) 2,532 9.9 -18.4°
Enters shadow 01:18:31 10° 162° (SSE) 2,532 9.9 -18.4°
